TimeEST,TemperatureF,Dew PointF,Humidity,Sea Level PressureIn,VisibilityMPH,Wind Direction,Wind SpeedMPH,Gust SpeedMPH,PrecipitationIn,Events,Conditions,WindDirDegrees,DateUTC
12:15 AM,50.0,44.6,82,30.31,10.0,ENE,4.6,-,N/A,,Overcast,70,2012-12-14 05:15:00
12:35 AM,50.0,44.6,82,30.31,10.0,ENE,4.6,-,N/A,,Overcast,60,2012-12-14 05:35:00
12:55 AM,50.0,46.4,87,30.31,7.0,East,3.5,-,N/A,,Overcast,80,2012-12-14 05:55:00
1:15 AM,48.2,46.4,93,30.31,7.0,ENE,4.6,-,N/A,,Overcast,60,2012-12-14 06:15:00
1:35 AM,48.2,46.4,93,30.31,5.0,East,5.8,-,N/A,,Overcast,80,2012-12-14 06:35:00
1:55 AM,48.2,46.4,93,30.31,7.0,ENE,5.8,-,N/A,,Overcast,70,2012-12-14 06:55:00
2:15 AM,48.2,46.4,93,30.30,7.0,East,5.8,-,N/A,,Overcast,90,2012-12-14 07:15:00
2:35 AM,50.0,46.4,87,30.30,7.0,East,3.5,-,N/A,,Overcast,90,2012-12-14 07:35:00
2:55 AM,50.0,46.4,87,30.30,10.0,East,8.1,-,N/A,,Overcast,80,2012-12-14 07:55:00
3:15 AM,50.0,46.4,87,30.30,10.0,East,4.6,-,N/A,,Overcast,80,2012-12-14 08:15:00
3:35 AM,50.0,46.4,87,30.29,10.0,ESE,8.1,-,N/A,,Overcast,110,2012-12-14 08:35:00
3:55 AM,48.2,46.4,93,30.29,10.0,East,5.8,-,N/A,,Overcast,100,2012-12-14 08:55:00
4:15 AM,50.0,46.4,87,30.29,10.0,Calm,Calm,-,N/A,,Overcast,0,2012-12-14 09:15:00
4:35 AM,50.0,46.4,87,30.29,10.0,East,5.8,-,N/A,,Overcast,80,2012-12-14 09:35:00
4:55 AM,50.0,46.4,87,30.28,10.0,Calm,Calm,-,N/A,,Overcast,0,2012-12-14 09:55:00
5:15 AM,50.0,44.6,82,30.28,10.0,East,8.1,-,N/A,,Overcast,80,2012-12-14 10:15:00
5:35 AM,50.0,44.6,82,30.28,10.0,ENE,4.6,-,N/A,,Overcast,70,2012-12-14 10:35:00
6:15 AM,50.0,44.6,82,30.30,10.0,Calm,Calm,-,N/A,,Overcast,0,2012-12-14 11:15:00
6:35 AM,50.0,44.6,82,30.31,10.0,NNE,5.8,-,N/A,,Overcast,20,2012-12-14 11:35:00
6:55 AM,48.2,44.6,87,30.32,7.0,NE,4.6,-,N/A,,Overcast,40,2012-12-14 11:55:00
7:15 AM,48.2,44.6,87,30.32,7.0,Calm,Calm,-,N/A,,Overcast,0,2012-12-14 12:15:00
7:35 AM,48.2,44.6,87,30.34,7.0,North,3.5,-,N/A,,Overcast,360,2012-12-14 12:35:00
7:55 AM,48.2,44.6,87,30.34,7.0,NNE,6.9,-,N/A,,Overcast,30,2012-12-14 12:55:00
8:15 AM,48.2,44.6,87,30.35,7.0,NNE,5.8,-,N/A,,Overcast,30,2012-12-14 13:15:00
8:35 AM,48.2,44.6,87,30.35,7.0,NE,5.8,-,N/A,,Overcast,50,2012-12-14 13:35:00
8:55 AM,50.0,44.6,82,30.36,10.0,NE,9.2,-,N/A,,Overcast,40,2012-12-14 13:55:00
9:15 AM,50.0,44.6,82,30.36,10.0,NE,5.8,-,N/A,,Overcast,40,2012-12-14 14:15:00
9:35 AM,50.0,44.6,82,30.36,10.0,NE,5.8,-,N/A,,Scattered Clouds,40,2012-12-14 14:35:00
9:55 AM,50.0,44.6,82,30.36,10.0,NE,9.2,-,N/A,,Scattered Clouds,40,2012-12-14 14:55:00
10:15 AM,51.8,44.6,76,30.36,10.0,ENE,5.8,-,N/A,,Scattered Clouds,60,2012-12-14 15:15:00
10:35 AM,51.8,44.6,76,30.36,10.0,NE,8.1,-,N/A,,Clear,50,2012-12-14 15:35:00
10:55 AM,53.6,44.6,72,30.36,10.0,NNE,8.1,-,N/A,,Clear,30,2012-12-14 15:55:00
11:15 AM,53.6,44.6,72,30.36,10.0,NE,8.1,-,N/A,,Clear,50,2012-12-14 16:15:00
11:35 AM,55.4,44.6,67,30.34,10.0,East,3.5,-,N/A,,Clear,100,2012-12-14 16:35:00
11:55 AM,57.2,44.6,63,30.32,10.0,NE,8.1,-,N/A,,Clear,50,2012-12-14 16:55:00
12:15 PM,59.0,44.6,59,30.31,10.0,ENE,9.2,-,N/A,,Clear,60,2012-12-14 17:15:00
12:35 PM,59.0,44.6,59,30.29,7.0,ENE,8.1,-,N/A,,Clear,60,2012-12-14 17:35:00
12:55 PM,60.8,46.4,59,30.27,10.0,NE,6.9,-,N/A,,Clear,50,2012-12-14 17:55:00
1:15 PM,60.8,46.4,59,30.25,10.0,East,5.8,-,N/A,,Clear,80,2012-12-14 18:15:00
1:35 PM,60.8,46.4,59,30.24,10.0,NE,6.9,16.1,N/A,,Clear,50,2012-12-14 18:35:00
1:55 PM,62.6,46.4,55,30.23,10.0,ENE,6.9,-,N/A,,Clear,70,2012-12-14 18:55:00
2:15 PM,62.6,46.4,55,30.23,10.0,ENE,3.5,-,N/A,,Clear,70,2012-12-14 19:15:00
2:35 PM,62.6,46.4,55,30.23,10.0,East,3.5,-,N/A,,Clear,100,2012-12-14 19:35:00
2:55 PM,62.6,46.4,55,30.21,10.0,NE,5.8,-,N/A,,Clear,40,2012-12-14 19:55:00
3:15 PM,64.4,46.4,52,30.21,10.0,NE,4.6,-,N/A,,Clear,50,2012-12-14 20:15:00
3:35 PM,64.4,46.4,52,30.21,10.0,North,5.8,-,N/A,,Clear,10,2012-12-14 20:35:00
3:55 PM,64.4,46.4,52,30.21,10.0,Calm,Calm,-,N/A,,Clear,0,2012-12-14 20:55:00
4:15 PM,64.4,46.4,52,30.21,10.0,NE,3.5,-,N/A,,Clear,50,2012-12-14 21:15:00
4:35 PM,64.4,46.4,52,30.20,10.0,NNE,4.6,-,N/A,,Clear,30,2012-12-14 21:35:00
4:55 PM,62.6,46.4,55,30.20,10.0,Calm,Calm,-,N/A,,Clear,0,2012-12-14 21:55:00
5:15 PM,62.6,48.2,59,30.19,10.0,Calm,Calm,-,N/A,,Clear,0,2012-12-14 22:15:00
5:35 PM,60.8,48.2,63,30.19,10.0,ENE,3.5,-,N/A,,Clear,60,2012-12-14 22:35:00
5:55 PM,59.0,48.2,67,30.21,10.0,Calm,Calm,-,N/A,,Clear,0,2012-12-14 22:55:00
6:15 PM,55.4,50.0,82,30.22,10.0,Calm,Calm,-,N/A,,Clear,0,2012-12-14 23:15:00
6:35 PM,55.4,50.0,82,30.23,10.0,Calm,Calm,-,N/A,,Clear,0,2012-12-14 23:35:00
6:55 PM,53.6,50.0,88,30.23,10.0,Calm,Calm,-,N/A,,Clear,0,2012-12-14 23:55:00
7:15 PM,53.6,50.0,88,30.24,10.0,Calm,Calm,-,N/A,,Clear,0,2012-12-15 00:15:00
7:35 PM,51.8,50.0,94,30.25,10.0,Calm,Calm,-,N/A,,Clear,0,2012-12-15 00:35:00
7:55 PM,51.8,48.2,88,30.25,10.0,Calm,Calm,-,N/A,,Clear,0,2012-12-15 00:55:00
8:15 PM,50.0,48.2,94,30.25,10.0,Calm,Calm,-,N/A,,Clear,0,2012-12-15 01:15:00
8:35 PM,50.0,46.4,87,30.24,10.0,Calm,Calm,-,N/A,,Clear,0,2012-12-15 01:35:00
8:55 PM,50.0,46.4,87,30.23,10.0,Calm,Calm,-,N/A,,Clear,0,2012-12-15 01:55:00
9:15 PM,50.0,46.4,87,30.23,10.0,Calm,Calm,-,N/A,,Clear,0,2012-12-15 02:15:00
9:35 PM,50.0,46.4,87,30.23,10.0,Calm,Calm,-,N/A,,Clear,0,2012-12-15 02:35:00
9:55 PM,50.0,48.2,94,30.21,10.0,Calm,Calm,-,N/A,,Clear,0,2012-12-15 02:55:00
10:15 PM,50.0,46.4,87,30.21,10.0,Calm,Calm,-,N/A,,Clear,0,2012-12-15 03:15:00
10:35 PM,51.8,48.2,88,30.21,10.0,ENE,3.5,-,N/A,,Clear,70,2012-12-15 03:35:00
10:55 PM,51.8,48.2,88,30.21,10.0,Calm,Calm,-,N/A,,Clear,0,2012-12-15 03:55:00
11:15 PM,51.8,48.2,88,30.20,10.0,Calm,Calm,-,N/A,,Clear,0,2012-12-15 04:15:00
11:35 PM,51.8,48.2,88,30.20,10.0,Calm,Calm,-,N/A,,Clear,0,2012-12-15 04:35:00
11:55 PM,51.8,48.2,88,30.19,10.0,Calm,Calm,-,N/A,,Clear,0,2012-12-15 04:55:00